CZ-3B R/B, 40750

Orbit data source: Space-Track

CZ-3B R/B, 40750 is space debris originally from a launch on Sat, 25 Jul 2015 UTC launched from the Xichang Space Center, China (XSC). Debris objects in space refer to the collection of defunct objects orbiting the Earth. Examples of debris include non-operational satellites, rocket bodies, and fragments generated from explosions, collisions, or faulty payload assembly.

Loading next visibility...
Identifier
40750, 2015-037C
Orbit
Active
Last TLE update
2 days ago
Origin
Manufacturer
CALT
Mission
Spacecraft
Bus & Motor
CZ-3A STAGE 3, Unknown motor
Mass
~2,800 kg wet, ~2,800 kg dry
Launch date (UTC)
2015-07-25 (10 years ago)
Launch vehicle
Unknown
Launch site
Xichang Space Center, China (XSC)
Object type
Payload
Rocket body
Debris
Shape & HBR
Cyl + 1 Nozzle, 12.38 m
Radar Cross Section
32.751 m², Large (>1 m²)

Expand to show TLE details & history

TLE from 2 days ago
0 CZ-3B R/B
1 40750U 15037C   25127.65186886  .00565503  30448-6  10499-2 0  9991
2 40750  54.8983 326.6566 4272525   9.0300 356.7421  7.13129971175559
Epoch: 2025-05-07T15:38Z
Definitive object data (Epoch: 2025-05-07T15:38:41.469Z)
Latitude
-0.00012°
Longitude
-133.74992°
Altitude
176.362 km
Speed
9.311 km/s
True Right ascension
21h 46m 37s
True Declination
0° 00' 00"
Sunlit
Object was in daylight at TLE epoch
Visualization TLE readout
Latitude
-14.46754°
Longitude
54.85289°
Altitude
9,752.748 km
Speed
3.796 km/s
Apparent Right ascension
09h 08m 36s
Apparent Declination
-29° 40' 42"
Sunlit
Object is in daylight
Visualization observer readout
Local Sidereal Time
14:38:05
Azimuth
242.213° WSW
Elevation
-13.253°
Doppler factor
1
Orbital elements
Apogee altitude
9,894.44 km
Perigee altitude
151.946 km
Semi-major axis
11,401.33 km
Eccentricity
0.4272525
Inclination
54.8983°
RAAN
326.6566°
Arg. of periapsis
9.03°
True anomaly
351.04257°
Mean anomaly
356.7421°
Eccentric anomaly
354.31875°
Mean motion
1.78283 °/min
BSTAR
0.0010499
Orbital period
201.93 mins
Loading maneuver chart data...
Loading SW <> Apogee altitude chart data...
Loading historical data...
Loading historical data...
Loading historical data...
Loading historical data...
Loading historical data...
Loading historical data...
Loading historical data...
Other satellites on launch #37 in the year 2015 (2015-07-25 UTC)

CZ-3B R/B Visibility forecast

Observer location: undefined°, undefined°

Span
Click to sort rows by Start time (UTC) header in descending order
Start Az.
Max El. time (UTC)
Max El. Az.
Max El.
End time (UTC)
End Az.
6 mins2025-05-09 14:49:14.657Z152.319° SSE2025-05-09 14:51:14.657Z98.396° ESE21.54°2025-05-09 14:55:14.657Z59.605° ENE
23 mins2025-05-09 18:17:14.657Z311.104° NW2025-05-09 18:21:14.657Z2.276° NNE31.509°2025-05-09 18:40:14.657Z65.681° ENE
74 mins2025-05-09 21:45:14.657Z314.271° NW2025-05-09 21:59:14.657Z45.18° ENE43.687°2025-05-09 22:59:14.657Z131.065° SE
84 mins2025-05-10 01:15:14.657Z303.511° NW2025-05-10 01:39:14.657Z243.37° WSW36.112°2025-05-10 02:39:14.657Z188.08° SSW
|